| time (UTC) | temp F | wind direction | speed MPH | gust MPH | rain 1hr in | rain 24hr in | rain mn in | humidity % | barometer mb |
| 20260905164234 | 69 | 0 | 6.0 | 10.0 | 0.00 | 0.00 | 0.00 | 78 | 1015.2 |
| 20260905163232 | 69 | 312 | 2.0 | 7.0 | 0.00 | 0.00 | 0.00 | 76 | 1015.3 |
| 20260905162227 | 70 | 349 | 2.0 | 3.0 | 0.00 | 0.00 | 0.00 | 76 | 1015.3 |
| 20260905161226 | 69 | 10 | 1.0 | 8.0 | 0.00 | 0.00 | 0.00 | 79 | 1015.5 |
| 20260905160225 | 68 | 356 | 8.0 | 9.0 | 0.00 | 0.00 | 0.00 | 77 | 1015.3 |
| 20260905155225 | 68 | 314 | 3.0 | 9.0 | 0.00 | 0.00 | 0.00 | 80 | 1015.4 |
| 20260905154221 | 68 | 328 | 7.0 | 9.0 | 0.00 | 0.00 | 0.00 | 78 | 1015.5 |
| 20260905153218 | 67 | 345 | 3.0 | 8.0 | 0.00 | 0.00 | 0.00 | 81 | 1015.4 |
| 20260905152213 | 67 | 30 | 2.0 | 5.0 | 0.00 | 0.00 | 0.00 | 82 | 1015.5 |
| 20260905151209 | 67 | 353 | 6.0 | 8.0 | 0.00 | 0.00 | 0.00 | 82 | 1015.5 |
| 20260905150208 | 67 | 0 | 5.0 | 13.0 | 0.00 | 0.00 | 0.00 | 82 | 1015.4 |
| 20260905145207 | 67 | 44 | 2.0 | 9.0 | 0.00 | 0.00 | 0.00 | 82 | 1015.6 |
| 20260905144206 | 67 | 104 | 8.0 | 9.0 | 0.00 | 0.00 | 0.00 | 84 | 1015.3 |
| 20260905143205 | 66 | 41 | 3.0 | 10.0 | 0.00 | 0.00 | 0.00 | 85 | 1015.4 |
| 20260905142204 | 65 | 96 | 6.0 | 7.0 | 0.00 | 0.00 | 0.00 | 87 | 1015.5 |
| 20260905141201 | 65 | 87 | 8.0 | 11.0 | 0.00 | 0.00 | 0.00 | 87 | 1015.3 |
| 20260905140156 | 66 | 43 | 7.0 | 14.0 | 0.00 | 0.00 | 0.00 | 86 | 1015.5 |
| 20260905135153 | 64 | 348 | 11.0 | 12.0 | 0.00 | 0.00 | 0.00 | 90 | 1015.4 |
| 20260905134151 | 62 | 74 | 7.0 | 8.0 | 0.00 | 0.00 | 0.00 | 92 | 1015.4 |
| 20260905133147 | 64 | 355 | 3.0 | 5.0 | 0.00 | 0.00 | 0.00 | 92 | 1015.4 |
| 20260905132148 | 64 | 16 | 2.0 | 6.0 | 0.00 | 0.00 | 0.00 | 93 | 1015.5 |
| 20260905131143 | 63 | 26 | 3.0 | 14.0 | 0.00 | 0.00 | 0.00 | 94 | 1015.4 |
| 20260905130143 | 65 | 313 | 4.0 | 7.0 | 0.00 | 0.00 | 0.00 | 91 | 1015.4 |
| 20260905125140 | 65 | 302 | 5.0 | 6.0 | 0.00 | 0.00 | 0.00 | 91 | 1015.3 |
| 20260905124137 | 63 | 343 | 3.0 | 9.0 | 0.00 | 0.00 | 0.00 | 94 | 1015.1 |
| 20260905123136 | 64 | 20 | 2.0 | 7.0 | 0.00 | 0.00 | 0.00 | 93 | 1015.2 |
| 20260905122130 | 64 | 40 | 3.0 | 4.0 | 0.00 | 0.00 | 0.00 | 92 | 1015.4 |
| 20260905121126 | 64 | 43 | 1.0 | 3.0 | 0.00 | 0.00 | 0.00 | 93 | 1015.1 |
| 20260905120120 | 62 | 335 | 2.0 | 5.0 | 0.00 | 0.00 | 0.00 | 95 | 1015.4 |
| 20260905115120 | 62 | 345 | 3.0 | 3.0 | 0.00 | 0.00 | 0.00 | 95 | 1015.3 |
| 20260905114118 | 62 | 2 | 3.0 | 4.0 | 0.00 | 0.00 | 0.00 | 97 | 1015.3 |
| 20260905113115 | 60 | 15 | 2.0 | 5.0 | 0.00 | 0.00 | 0.00 | 99 | 1015.1 |
| 20260905112111 | 60 | 257 | 0.0 | 2.0 | 0.00 | 0.00 | 0.00 | 99 | 1015.0 |
| 20260905111110 | 59 | 53 | 0.0 | 2.0 | 0.00 | 0.00 | 0.00 | 99 | 1014.9 |
| 20260905110105 | 58 | 109 | 1.0 | 2.0 | 0.00 | 0.00 | 0.00 | 99 | 1014.6 |
| 20260905105105 | 58 | 96 | 1.0 | 2.0 | 0.00 | 0.00 | 0.00 | 99 | 1014.8 |
| 20260905104100 | 58 | 13 | 0.0 | 2.0 | 0.00 | 0.00 | 0.00 | 99 | 1014.4 |
| 20260905103058 | 58 | 65 | 0.0 | 2.0 | 0.00 | 0.00 | 0.00 | 99 | 1014.4 |
| 20260905102056 | 59 | 139 | 0.0 | 2.0 | 0.00 | 0.00 | 0.00 | 99 | 1014.5 |
| 20260905101052 | 59 | 38 | 2.0 | 3.0 | 0.00 | 0.00 | 0.00 | 99 | 1014.1 |
| 20260905100048 | 59 | 29 | 0.0 | 1.0 | 0.00 | 0.00 | 0.00 | 99 | 1014.3 |
| 20260905095044 | 59 | 7 | 2.0 | 2.0 | 0.00 | 0.00 | 0.00 | 99 | 1014.1 |
| 20260905094044 | 59 | 346 | 0.0 | 2.0 | 0.00 | 0.00 | 0.00 | 99 | 1014.3 |
| 20260905093041 | 59 | 31 | 2.0 | 2.0 | 0.00 | 0.00 | 0.00 | 99 | 1014.1 |
| 20260905092037 | 59 | 61 | 2.0 | 3.0 | 0.00 | 0.00 | 0.00 | 99 | 1014.0 |
| 20260905091036 | 59 | 29 | 0.0 | 3.0 | 0.00 | 0.00 | 0.00 | 98 | 1013.9 |
| 20260905090032 | 59 | 357 | 0.0 | 2.0 | 0.00 | 0.00 | 0.00 | 98 | 1014.0 |
| 20260905085026 | 60 | 144 | 1.0 | 3.0 | 0.00 | 0.00 | 0.00 | 97 | 1014.3 |
| 20260905084026 | 60 | 18 | 2.0 | 2.0 | 0.00 | 0.00 | 0.00 | 97 | 1014.3 |
| 20260905083024 | 60 | 69 | 0.0 | 1.0 | 0.00 | 0.00 | 0.00 | 97 | 1014.4 |
| 20260905082021 | 60 | 217 | 0.0 | 3.0 | 0.00 | 0.00 | 0.00 | 96 | 1014.3 |
| 20260905081020 | 60 | 350 | 1.0 | 2.0 | 0.00 | 0.00 | 0.00 | 96 | 1014.4 |
| 20260905080016 | 60 | 202 | 0.0 | 0.0 | 0.00 | 0.00 | 0.00 | 97 | 1014.5 |
| 20260905075014 | 60 | 313 | 0.0 | 1.0 | 0.00 | 0.00 | 0.00 | 96 | 1014.4 |
| 20260905074011 | 60 | 207 | 1.0 | 1.0 | 0.00 | 0.00 | 0.00 | 96 | 1014.4 |
| 20260905073008 | 61 | 258 | 0.0 | 1.0 | 0.00 | 0.00 | 0.00 | 95 | 1014.3 |
| 20260905072003 | 61 | 214 | 1.0 | 2.0 | 0.00 | 0.00 | 0.00 | 94 | 1014.3 |
| 20260905070959 | 62 | 283 | 0.0 | 1.0 | 0.00 | 0.00 | 0.00 | 94 | 1014.6 |
| 20260905065955 | 62 | 142 | 0.0 | 1.0 | 0.00 | 0.00 | 0.00 | 93 | 1014.6 |
| 20260905064954 | 62 | 143 | 0.0 | 2.0 | 0.00 | 0.00 | 0.00 | 94 | 1014.8 |
| 20260905063950 | 62 | 170 | 0.0 | 2.0 | 0.00 | 0.00 | 0.00 | 95 | 1014.7 |
| 20260905062947 | 63 | 216 | 0.0 | 2.0 | 0.00 | 0.00 | 0.00 | 93 | 1014.8 |
| 20260905061942 | 63 | 307 | 1.0 | 2.0 | 0.00 | 0.00 | 0.00 | 93 | 1014.9 |
| 20260905060941 | 64 | 24 | 0.0 | 2.0 | 0.00 | 0.00 | 0.00 | 91 | 1014.9 |
| 20260905055937 | 63 | 48 | 0.0 | 2.0 | 0.00 | 0.00 | 0.00 | 91 | 1015.0 |
| 20260905054937 | 64 | 8 | 2.0 | 4.0 | 0.00 | 0.00 | 0.00 | 90 | 1015.1 |
| 20260905053932 | 64 | 5 | 1.0 | 4.0 | 0.00 | 0.00 | 0.00 | 90 | 1015.1 |
| 20260905052929 | 64 | 23 | 0.0 | 2.0 | 0.00 | 0.00 | 0.00 | 91 | 1015.2 |
| 20260905051928 | 64 | 63 | 2.0 | 2.0 | 0.00 | 0.00 | 0.00 | 90 | 1015.2 |
| 20260905050927 | 65 | 19 | 0.0 | 2.0 | 0.00 | 0.00 | 0.00 | 91 | 1015.4 |
| 20260905045924 | 65 | 242 | 0.0 | 2.0 | 0.00 | 0.00 | 0.00 | 91 | 1015.6 |
| 20260905044920 | 65 | 20 | 0.0 | 3.0 | 0.00 | 0.00 | 0.00 | 92 | 1015.5 |
| 20260905043920 | 65 | 1 | 0.0 | 2.0 | 0.00 | 0.00 | 0.00 | 92 | 1015.6 |
| 20260905042920 | 65 | 0 | 3.0 | 3.0 | 0.00 | 0.00 | 0.00 | 91 | 1015.5 |
| 20260905041916 | 65 | 348 | 1.0 | 2.0 | 0.00 | 0.00 | 0.00 | 91 | 1015.4 |
| 20260905040912 | 65 | 31 | 2.0 | 3.0 | 0.00 | 0.00 | 0.00 | 91 | 1015.4 |
| 20260905035911 | 65 | 348 | 2.0 | 3.0 | 0.00 | 0.00 | 0.00 | 91 | 1015.3 |
| 20260905034909 | 65 | 354 | 3.0 | 3.0 | 0.00 | 0.00 | 0.00 | 91 | 1015.5 |
| 20260905033909 | 65 | 352 | 4.0 | 5.0 | 0.00 | 0.00 | 0.00 | 91 | 1015.4 |
| 20260905032904 | 65 | 354 | 2.0 | 4.0 | 0.00 | 0.00 | 0.00 | 92 | 1015.3 |
| 20260905031900 | 66 | 344 | 2.0 | 6.0 | 0.00 | 0.00 | 0.00 | 93 | 1015.4 |
| 20260905030857 | 66 | 345 | 2.0 | 5.0 | 0.00 | 0.00 | 0.00 | 92 | 1015.2 |
| 20260905025858 | 66 | 4 | 2.0 | 4.0 | 0.00 | 0.00 | 0.00 | 92 | 1015.1 |
| 20260905024856 | 66 | 339 | 3.0 | 3.0 | 0.00 | 0.00 | 0.00 | 91 | 1015.1 |
| 20260905023851 | 66 | 30 | 1.0 | 2.0 | 0.00 | 0.00 | 0.00 | 90 | 1015.5 |
| 20260905022851 | 66 | 102 | 0.0 | 3.0 | 0.00 | 0.00 | 0.00 | 89 | 1015.3 |
| 20260905021847 | 67 | 47 | 1.0 | 4.0 | 0.00 | 0.00 | 0.00 | 89 | 1015.3 |
| 20260905020843 | 67 | 11 | 2.0 | 4.0 | 0.00 | 0.00 | 0.00 | 88 | 1015.6 |
| 20260905015843 | 67 | 39 | 1.0 | 4.0 | 0.00 | 0.00 | 0.00 | 89 | 1015.4 |
| 20260905014842 | 67 | 357 | 2.0 | 4.0 | 0.00 | 0.00 | 0.00 | 90 | 1015.4 |
| 20260905013838 | 67 | 12 | 2.0 | 4.0 | 0.00 | 0.00 | 0.00 | 87 | 1015.4 |
| 20260905012835 | 68 | 349 | 2.0 | 5.0 | 0.00 | 0.00 | 0.00 | 86 | 1015.4 |
| 20260905011833 | 68 | 353 | 2.0 | 4.0 | 0.00 | 0.00 | 0.00 | 84 | 1015.3 |
| 20260905010828 | 68 | 0 | 2.0 | 4.0 | 0.00 | 0.00 | 0.00 | 83 | 1015.4 |
| 20260905005826 | 68 | 4 | 1.0 | 2.0 | 0.00 | 0.00 | 0.00 | 84 | 1015.6 |
| 20260905004821 | 68 | 28 | 2.0 | 2.0 | 0.00 | 0.00 | 0.00 | 87 | 1015.4 |
| 20260905003818 | 68 | 359 | 0.0 | 2.0 | 0.00 | 0.00 | 0.00 | 84 | 1015.4 |
| 20260905002814 | 68 | 73 | 1.0 | 3.0 | 0.00 | 0.00 | 0.00 | 84 | 1015.2 |
| 20260905001809 | 68 | 22 | 1.0 | 3.0 | 0.00 | 0.00 | 0.00 | 85 | 1014.9 |
| 20260905000804 | 68 | 47 | 1.0 | 2.0 | 0.00 | 0.00 | 0.00 | 86 | 1014.9 |
| 20260904235800 | 68 | 0 | 0.0 | 4.0 | 0.00 | 0.00 | 0.00 | 85 | 1014.9 |
| 20260904234756 | 68 | 269 | 0.0 | 3.0 | 0.00 | 0.00 | 0.00 | 86 | 1014.9 |
| 20260904233753 | 69 | 17 | 2.0 | 3.0 | 0.00 | 0.00 | 0.00 | 85 | 1014.7 |
| 20260904232751 | 69 | 340 | 1.0 | 2.0 | 0.00 | 0.00 | 0.00 | 87 | 1014.5 |
| 20260904231748 | 70 | 100 | 0.0 | 1.0 | 0.00 | 0.00 | 0.00 | 83 | 1014.9 |
| 20260904230744 | 70 | 0 | 0.0 | 0.0 | 0.00 | 0.00 | 0.00 | 84 | 1014.9 |
| 20260904225744 | 70 | 180 | 0.0 | 1.0 | 0.00 | 0.00 | 0.00 | 82 | 1014.6 |
| 20260904224742 | 71 | 19 | 1.0 | 2.0 | 0.00 | 0.00 | 0.00 | 81 | 1014.9 |
| 20260904223737 | 71 | 15 | 0.0 | 1.0 | 0.00 | 0.00 | 0.00 | 80 | 1014.9 |
| 20260904222734 | 71 | 37 | 0.0 | 3.0 | 0.00 | 0.00 | 0.00 | 79 | 1014.7 |
| 20260904221735 | 71 | 0 | 2.0 | 4.0 | 0.00 | 0.00 | 0.00 | 77 | 1014.8 |
| 20260904220730 | 72 | 50 | 2.0 | 3.0 | 0.00 | 0.00 | 0.00 | 77 | 1014.8 |
| 20260904215731 | 72 | 10 | 0.0 | 4.0 | 0.00 | 0.00 | 0.00 | 76 | 1015.0 |
| 20260904214727 | 73 | 325 | 5.0 | 6.0 | 0.00 | 0.00 | 0.00 | 74 | 1014.8 |
| 20260904213727 | 74 | 348 | 4.0 | 6.0 | 0.00 | 0.00 | 0.00 | 73 | 1014.9 |
| 20260904212724 | 75 | 349 | 4.0 | 6.0 | 0.00 | 0.00 | 0.00 | 74 | 1014.9 |
| 20260904211719 | 75 | 324 | 3.0 | 7.0 | 0.00 | 0.00 | 0.00 | 74 | 1014.8 |
| 20260904210714 | 75 | 55 | 3.0 | 6.0 | 0.00 | 0.00 | 0.00 | 73 | 1014.9 |
| 20260904205711 | 76 | 354 | 3.0 | 8.0 | 0.00 | 0.00 | 0.00 | 73 | 1014.6 |
| 20260904204709 | 75 | 57 | 2.0 | 6.0 | 0.00 | 0.00 | 0.00 | 75 | 1014.9 |
| 20260904203707 | 77 | 249 | 2.0 | 3.0 | 0.00 | 0.00 | 0.00 | 74 | 1014.9 |
| 20260904202705 | 75 | 323 | 3.0 | 7.0 | 0.00 | 0.00 | 0.00 | 73 | 1014.9 |
| 20260904201701 | 76 | 339 | 1.0 | 3.0 | 0.00 | 0.00 | 0.00 | 74 | 1014.7 |
| 20260904200702 | 76 | 1 | 5.0 | 9.0 | 0.00 | 0.00 | 0.00 | 71 | 1015.1 |
| 20260904195701 | 74 | 7 | 4.0 | 6.0 | 0.00 | 0.00 | 0.00 | 75 | 1015.3 |
| 20260904194701 | 74 | 0 | 7.0 | 8.0 | 0.00 | 0.00 | 0.00 | 75 | 1015.4 |
| 20260904193656 | 74 | 53 | 2.0 | 10.0 | 0.00 | 0.00 | 0.00 | 76 | 1015.5 |
| 20260904192653 | 76 | 17 | 4.0 | 10.0 | 0.00 | 0.00 | 0.00 | 74 | 1015.6 |
| 20260904191651 | 76 | 359 | 4.0 | 4.0 | 0.00 | 0.00 | 0.00 | 73 | 1015.4 |
| 20260904190649 | 75 | 332 | 2.0 | 4.0 | 0.00 | 0.00 | 0.00 | 76 | 1015.6 |
| 20260904185647 | 74 | 347 | 4.0 | 6.0 | 0.00 | 0.00 | 0.00 | 75 | 1016.0 |
| 20260904184645 | 75 | 18 | 0.0 | 5.0 | 0.00 | 0.00 | 0.00 | 76 | 1015.8 |
| 20260904183643 | 75 | 343 | 3.0 | 4.0 | 0.00 | 0.00 | 0.00 | 78 | 1016.0 |
| 20260904182638 | 74 | 271 | 1.0 | 6.0 | 0.00 | 0.00 | 0.00 | 75 | 1016.4 |
| 20260904181635 | 75 | 75 | 1.0 | 5.0 | 0.00 | 0.00 | 0.00 | 75 | 1016.3 |
| 20260904180630 | 75 | 196 | 2.0 | 3.0 | 0.00 | 0.00 | 0.00 | 75 | 1016.4 |
| 20260904175631 | 75 | 53 | 5.0 | 7.0 | 0.00 | 0.00 | 0.00 | 76 | 1016.3 |
| 20260904174629 | 75 | 286 | 3.0 | 6.0 | 0.00 | 0.00 | 0.00 | 74 | 1016.4 |
| 20260904173627 | 74 | 10 | 4.0 | 11.0 | 0.00 | 0.00 | 0.00 | 74 | 1016.5 |
| 20260904172624 | 74 | 338 | 2.0 | 7.0 | 0.00 | 0.00 | 0.00 | 78 | 1016.6 |
| 20260904171624 | 73 | 0 | 5.0 | 6.0 | 0.00 | 0.00 | 0.00 | 77 | 1016.7 |
| 20260904170622 | 72 | 318 | 3.0 | 8.0 | 0.00 | 0.00 | 0.00 | 79 | 1016.7 |
| 20260904165621 | 74 | 59 | 6.0 | 9.0 | 0.00 | 0.00 | 0.00 | 78 | 1016.7 |